GW2042 Weather Reports


Display with metric or nautical units.
time (UTC)temp
F
wind
direction
speed
MPH
gust
MPH
rain 1hr
in
rain 24hr
in
rain mn
in
humidity
%
barometer
mb
20260904112517 75 117 2.0 6.0 0.00 0.00 0.00 82 1014.6
20260904112019 75 117 1.0 7.0 0.00 0.00 0.00 82 1014.4
20260904111538 76 150 2.0 9.0 0.00 0.00 0.00 80 1014.2
20260904111019 76 134 3.0 9.0 0.00 0.00 0.00 79 1014.3
20260904110517 76 116 2.0 7.0 0.00 0.00 0.00 81 1014.4
20260904110038 76 101 2.0 6.0 0.00 0.00 0.00 81 1014.3
20260904104021 77 169 3.0 7.0 0.00 0.00 0.00 82 1014.2
20260904103517 77 0 2.0 7.0 0.00 0.00 0.00 82 1014.1
20260904103038 77 130 3.0 7.0 0.00 0.00 0.00 82 1014.1
20260904102521 77 115 2.0 7.0 0.00 0.00 0.00 82 1014.2
20260904102020 77 142 2.0 7.0 0.00 0.00 0.00 82 1014.1
20260904101541 77 171 3.0 10.0 0.00 0.00 0.00 82 1014.1
20260904094018 76 154 3.0 8.0 0.00 0.00 0.00 83 1014.0
20260904093522 76 144 2.0 8.0 0.00 0.00 0.00 83 1013.9
20260904093038 76 138 3.0 8.0 0.00 0.00 0.00 82 1013.9
20260904092520 76 147 3.0 8.0 0.00 0.00 0.00 82 1013.9
20260904092017 76 154 4.0 11.0 0.00 0.00 0.00 82 1013.8
20260904091538 76 129 4.0 11.0 0.00 0.00 0.00 82 1013.6
20260904085024 77 153 3.0 10.0 0.00 0.00 0.00 81 1013.9
20260904084539 77 160 3.0 9.0 0.00 0.00 0.00 80 1014.0
20260904084019 77 163 4.0 9.0 0.00 0.00 0.00 80 1013.8
20260904083517 77 146 4.0 9.0 0.00 0.00 0.00 80 1013.7
20260904083034 77 137 4.0 9.0 0.00 0.00 0.00 80 1013.7
20260904081020 77 144 3.0 10.0 0.00 0.00 0.00 79 1013.8
20260904080518 77 150 2.0 11.0 0.00 0.00 0.00 79 1013.8
20260904075518 77 176 3.0 9.0 0.00 0.00 0.00 78 1013.7
20260904075020 78 146 4.0 9.0 0.00 0.00 0.00 78 1013.7
20260904074534 78 158 3.0 9.0 0.00 0.00 0.00 78 1013.8
20260904074021 78 161 3.0 9.0 0.00 0.00 0.00 77 1013.8
20260904073518 78 196 3.0 8.0 0.00 0.00 0.00 77 1013.8
20260904073037 78 156 2.0 7.0 0.00 0.00 0.00 77 1014.0
20260904070520 78 169 3.0 8.0 0.00 0.00 0.00 76 1014.1
20260904070042 78 166 4.0 9.0 0.00 0.00 0.00 76 1014.1
20260904065524 78 146 4.0 9.0 0.00 0.00 0.00 76 1013.9
20260904065019 78 163 4.0 9.0 0.00 0.00 0.00 76 1013.9
20260904064536 78 167 3.0 9.0 0.00 0.00 0.00 76 1013.9
20260904064025 78 149 3.0 11.0 0.00 0.00 0.00 77 1013.8
20260904063516 78 146 4.0 11.0 0.00 0.00 0.00 77 1013.8
20260904063046 78 155 4.0 10.0 0.00 0.00 0.00 78 1014.0
20260904060522 77 146 3.0 8.0 0.00 0.00 0.00 81 1013.9
20260904055519 77 150 4.0 12.0 0.00 0.00 0.00 81 1014.1
20260904055019 77 127 3.0 12.0 0.00 0.00 0.00 81 1014.1
20260904054540 77 169 3.0 10.0 0.00 0.00 0.00 81 1014.0
20260904054019 78 161 4.0 10.0 0.00 0.00 0.00 81 1014.0
20260904053522 78 113 4.0 9.0 0.00 0.00 0.00 81 1014.0
20260904052020 78 155 3.0 9.0 0.00 0.00 0.00 80 1014.1
20260904051608 78 142 4.0 10.0 0.00 0.00 0.00 80 1014.1
20260904051026 78 120 4.0 10.0 0.00 0.00 0.00 80 1013.9
20260904050521 78 159 3.0 11.0 0.00 0.00 0.00 80 1014.0
20260904050038 78 128 3.0 11.0 0.00 0.00 0.00 79 1013.9
20260904045519 79 121 3.0 10.0 0.00 0.00 0.00 79 1013.8
20260904045016 79 135 3.0 10.0 0.00 0.00 0.00 79 1013.8
20260904044554 79 131 3.0 10.0 0.00 0.00 0.00 79 1013.7
20260904044017 79 118 4.0 11.0 0.00 0.00 0.00 79 1013.6
20260904043034 79 114 2.0 9.0 0.00 0.00 0.00 78 1013.7
20260904041539 80 125 3.0 8.0 0.00 0.00 0.00 78 1013.8
20260904041019 80 113 3.0 8.0 0.00 0.00 0.00 77 1013.7
20260904040520 80 141 3.0 9.0 0.00 0.00 0.00 76 1013.7
20260904040047 81 126 3.0 9.0 0.00 0.00 0.00 75 1013.8
20260904035517 81 142 3.0 11.0 0.00 0.00 0.00 74 1013.7
20260904035026 81 161 4.0 13.0 0.00 0.00 0.00 74 1013.7
20260904034539 81 147 4.0 13.0 0.00 0.00 0.00 74 1013.6
20260904034017 81 143 5.0 12.0 0.00 0.00 0.00 74 1013.6
20260904033516 81 147 4.0 12.0 0.00 0.00 0.00 75 1013.6
20260904033042 81 148 3.0 11.0 0.00 0.00 0.00 75 1013.6
20260904031537 82 159 3.0 10.0 0.00 0.00 0.00 75 1013.4
20260904025518 82 138 4.0 13.0 0.00 0.00 0.00 74 1013.1
20260904025021 82 138 4.0 13.0 0.00 0.00 0.00 73 1013.1
20260904024539 82 134 5.0 11.0 0.00 0.00 0.00 72 1013.0
20260904024019 83 160 6.0 11.0 0.00 0.00 0.00 71 1012.9
20260904023517 83 133 4.0 12.0 0.00 0.00 0.00 70 1012.9
20260904023050 83 113 5.0 12.0 0.00 0.00 0.00 69 1012.8
20260904022521 84 133 4.0 11.0 0.00 0.00 0.00 68 1012.8
20260904022017 84 134 4.0 14.0 0.00 0.00 0.00 68 1012.8
20260904021537 84 142 6.0 14.0 0.00 0.00 0.00 67 1012.7
20260904015519 85 151 2.0 12.0 0.00 0.00 0.00 66 1012.3
20260904015022 85 145 5.0 12.0 0.00 0.00 0.00 65 1012.4
20260904014022 86 136 6.0 11.0 0.00 0.00 0.00 65 1012.2
20260904013519 86 144 5.0 17.0 0.00 0.00 0.00 64 1012.1
20260904013039 86 151 7.0 17.0 0.00 0.00 0.00 64 1012.0
20260904012517 86 152 5.0 15.0 0.00 0.00 0.00 63 1011.9
20260904012018 87 140 6.0 15.0 0.00 0.00 0.00 63 1011.9
20260904011538 87 140 6.0 15.0 0.00 0.00 0.00 63 1011.7
20260904010525 88 142 6.0 13.0 0.00 0.00 0.00 62 1011.8
20260904010040 88 144 6.0 14.0 0.00 0.00 0.00 61 1011.8
20260904005519 88 148 5.0 16.0 0.00 0.00 0.00 61 1011.7
20260904005019 89 136 6.0 17.0 0.00 0.00 0.00 60 1011.7
20260904004539 89 140 6.0 17.0 0.00 0.00 0.00 59 1011.7
20260904004018 90 138 6.0 17.0 0.00 0.00 0.00 58 1011.6
20260904002520 91 157 5.0 14.0 0.00 0.00 0.00 56 1011.5
20260904002024 92 160 5.0 14.0 0.00 0.00 0.00 55 1011.4
20260904001023 92 176 6.0 15.0 0.00 0.00 0.00 54 1011.5
20260904000520 92 172 6.0 16.0 0.00 0.00 0.00 54 1011.5
20260904000058 93 155 7.0 16.0 0.00 0.00 0.00 53 1011.4
20260903235517 93 130 8.0 15.0 0.00 0.00 0.00 52 1011.4
20260903235018 94 148 7.0 14.0 0.00 0.00 0.00 51 1011.4
20260903234537 94 141 6.0 14.0 0.00 0.00 0.00 50 1011.3
20260903234016 95 134 7.0 14.0 0.00 0.00 0.00 50 1011.4
20260903233051 96 146 6.0 16.0 0.00 0.00 0.00 48 1011.0
20260903232020 97 123 6.0 12.0 0.00 0.00 0.00 46 1011.2
20260903231017 98 149 6.0 14.0 0.00 0.00 0.00 45 1010.7
20260903230517 97 127 5.0 12.0 0.00 0.00 0.00 46 1010.6
20260903230055 97 129 5.0 14.0 0.00 0.00 0.00 45 1010.5
20260903225520 98 173 4.0 14.0 0.00 0.00 0.00 44 1010.6
20260903225017 99 209 5.0 12.0 0.00 0.00 0.00 43 1010.5
20260903224022 99 147 4.0 10.0 0.00 0.00 0.00 40 1010.5
20260903222518 99 0 1.0 9.0 0.00 0.00 0.00 39 1010.5
20260903222022 100 140 3.0 11.0 0.00 0.00 0.00 38 1010.6
20260903221539 100 164 4.0 11.0 0.00 0.00 0.00 39 1010.7
20260903221016 100 166 2.0 10.0 0.00 0.00 0.00 39 1010.6
20260903220518 102 155 5.0 11.0 0.00 0.00 0.00 38 1010.4
20260903213520 102 144 4.0 9.0 0.00 0.00 0.00 36 1010.8
20260903212519 102 140 2.0 9.0 0.00 0.00 0.00 38 1011.0
20260903212020 101 163 3.0 10.0 0.00 0.00 0.00 38 1011.1
20260903211540 101 150 4.0 10.0 0.00 0.00 0.00 39 1011.1
20260903211018 101 126 4.0 14.0 0.00 0.00 0.00 39 1011.0
20260903210518 101 101 5.0 14.0 0.00 0.00 0.00 39 1011.0
20260903205520 101 120 5.0 13.0 0.00 0.00 0.00 39 1011.2
20260903204020 101 142 3.0 11.0 0.00 0.00 0.00 38 1011.6
20260903203519 102 133 5.0 11.0 0.00 0.00 0.00 38 1011.7
20260903202523 101 161 4.0 12.0 0.00 0.00 0.00 39 1011.7
20260903202017 101 151 3.0 12.0 0.00 0.00 0.00 39 1011.8
20260903201536 103 86 4.0 12.0 0.00 0.00 0.00 38 1011.8
20260903201019 102 173 5.0 12.0 0.00 0.00 0.00 38 1011.8
20260903200516 102 148 6.0 12.0 0.00 0.00 0.00 38 1011.9
20260903193522 98 167 3.0 10.0 0.00 0.00 0.00 41 1012.1
20260903192521 98 153 2.0 6.0 0.00 0.00 0.00 41 1012.4
20260903192017 97 69 1.0 6.0 0.00 0.00 0.00 42 1012.4
20260903191538 96 0 0.0 6.0 0.00 0.00 0.00 43 1012.5
20260903191017 96 110 1.0 6.0 0.00 0.00 0.00 43 1012.6
20260903190520 96 109 1.0 6.0 0.00 0.00 0.00 44 1012.7
20260903185027 98 147 0.0 10.0 0.00 0.00 0.00 42 1012.9
20260903184025 99 184 4.0 10.0 0.00 0.00 0.00 40 1012.9
20260903183519 100 186 3.0 8.0 0.00 0.00 0.00 40 1013.0
20260903183038 98 159 2.0 7.0 0.00 0.00 0.00 41 1013.2
20260903182518 99 169 3.0 7.0 0.00 0.00 0.00 42 1013.2
20260903182016 100 169 2.0 6.0 0.00 0.00 0.00 40 1013.3
20260903180519 99 147 2.0 8.0 0.00 0.00 0.00 42 1013.6
20260903175520 99 138 3.0 10.0 0.00 0.00 0.00 43 1013.6
20260903175020 98 184 4.0 9.0 0.00 0.00 0.00 42 1013.7
20260903174019 99 98 2.0 7.0 0.00 0.00 0.00 43 1013.9
20260903173522 99 115 2.0 7.0 0.00 0.00 0.00 42 1014.0
20260903173038 96 145 1.0 6.0 0.00 0.00 0.00 47 1014.1
20260903172518 94 0 2.0 6.0 0.00 0.00 0.00 48 1014.3
20260903172018 94 132 3.0 6.0 0.00 0.00 0.00 47 1014.3
20260903165518 94 188 4.0 9.0 0.00 0.00 0.00 47 1014.4
20260903165017 93 230 3.0 7.0 0.00 0.00 0.00 50 1014.5
20260903164538 94 236 2.0 7.0 0.00 0.00 0.00 48 1014.7
20260903163041 93 123 3.0 9.0 0.00 0.00 0.00 50 1014.6
20260903162020 92 0 0.0 12.0 0.00 0.00 0.00 51 1014.5
20260903161537 92 173 5.0 12.0 0.00 0.00 0.00 51 1014.5
20260903160520 91 246 5.0 12.0 0.00 0.00 0.00 53 1014.4
20260903160044 91 234 4.0 10.0 0.00 0.00 0.00 52 1014.4
20260903155521 91 232 4.0 12.0 0.00 0.00 0.00 54 1014.4
20260903155017 90 169 6.0 12.0 0.00 0.00 0.00 56 1014.3
20260903154540 89 237 5.0 13.0 0.00 0.00 0.00 56 1014.3
20260903154024 89 212 6.0 13.0 0.00 0.00 0.00 56 1014.3
20260903153041 88 169 4.0 9.0 0.00 0.00 0.00 60 1014.2
20260903151541 87 178 4.0 9.0 0.00 0.00 0.00 62 1014.4
20260903150052 86 198 4.0 9.0 0.00 0.00 0.00 63 1014.5
20260903145517 85 135 3.0 9.0 0.00 0.00 0.00 65 1014.5
20260903145021 85 192 2.0 6.0 0.00 0.00 0.00 65 1014.5
20260903144541 84 121 2.0 5.0 0.00 0.00 0.00 66 1014.5
20260903144020 84 171 2.0 6.0 0.00 0.00 0.00 67 1014.6
20260903143521 83 169 1.0 6.0 0.00 0.00 0.00 69 1014.5
20260903143043 82 197 2.0 5.0 0.00 0.00 0.00 69 1014.5
20260903141540 81 139 2.0 7.0 0.00 0.00 0.00 72 1014.6
20260903140041 80 185 2.0 5.0 0.00 0.00 0.00 75 1014.9
20260903135518 79 156 2.0 5.0 0.00 0.00 0.00 77 1014.9
20260903135018 79 146 2.0 7.0 0.00 0.00 0.00 77 1014.9
20260903134546 78 136 2.0 9.0 0.00 0.00 0.00 78 1014.8
20260903134019 78 130 3.0 9.0 0.00 0.00 0.00 79 1014.9
20260903133518 77 132 2.0 6.0 0.00 0.00 0.00 80 1014.9
20260903133038 76 159 1.0 5.0 0.00 0.00 0.00 81 1014.8
20260903131549 75 163 1.0 5.0 0.00 0.00 0.00 84 1014.7
20260903131022 75 158 1.0 4.0 0.00 0.00 0.00 84 1014.6
20260903130521 74 0 1.0 4.0 0.00 0.00 0.00 85 1014.6
20260903130045 74 146 1.0 5.0 0.00 0.00 0.00 86 1014.5
20260903125516 74 126 1.0 5.0 0.00 0.00 0.00 86 1014.6
20260903124541 73 126 1.0 5.0 0.00 0.00 0.00 87 1014.6
20260903123521 72 132 0.0 2.0 0.00 0.00 0.00 87 1014.4
20260903123043 72 0 0.0 2.0 0.00 0.00 0.00 87 1014.3
20260903122518 72 0 0.0 2.0 0.00 0.00 0.00 87 1014.2
20260903122018 72 0 0.0 1.0 0.00 0.00 0.00 87 1014.2
20260903121553 72 0 0.0 0.0 0.00 0.00 0.00 87 1014.1
20260903121019 72 0 0.0 0.0 0.00 0.00 0.00 86 1014.0
20260903120517 72 0 0.0 1.0 0.00 0.00 0.00 86 1014.0
20260903120040 72 0 0.0 2.0 0.00 0.00 0.00 86 1013.9
20260903114539 72 125 0.0 2.0 0.00 0.00 0.00 87 1013.9
20260903113519 72 155 0.0 2.0 0.00 0.00 0.00 87 1013.8
20260903113038 72 0 0.0 2.0 0.00 0.00 0.00 86 1013.8